Regional Weather Roundup
Issued by NWS

Home | Current Version | Previous Version | Text Only | Print | Product List | Glossary Off
Versions: 1 2 3 4 5 6 7 8 9 10 11 12 13 14 15 16 17 18 19 20 21 22 23 24 25 26 27 28 29 30 31 32 33 34 35 36 37 38 39 40 41 42 43 44 45 46 47 48 49 50

000
ASUS45 KABQ 241901
RWRNM
NEW MEXICO REGIONAL WEATHER ROUNDUP
NATIONAL WEATHER SERVICE ALBUQUERQUE NM
100 PM MDT TUE MAY 24 2016

NOTE: "FAIR" MEANS FEW OR NO CLOUDS BELOW 12,000 FEET AGL WITH NO
       SIGNIFICANT WEATHER OR OBSTRUCTIONS TO VISION.

      THIS PRODUCT IS RELEASED AS TWO VERSIONS.  ONE VERSION NEAR
      THE TOP OF THE HOUR CONTAINING PRELIMINARY DATA FROM ALBUQUERQUE
      AND OTHER STATIONS.  A FINAL VERSION WITH ADDITIONAL DATA IS
      ISSUED ABOUT 10 MINUTES AFTER THE HOUR.

NMZ501-503-504-510>518-242000-
NORTHWEST PLATEAU/NORTHCENTRAL MOUNTAINS

CITY           SKY/WX    TMP DP  RH WIND       PRES   REMARKS
FARMINGTON     FAIR      73  17  12 S17G25    29.96F
SANTA FE       FAIR      76  16  10 SW20G28   30.04F
TAOS           FAIR      70  21  16 SW18G29   30.07F

$$
NMZ402-403-502-505>509-242000-
WESTCENTRAL MOUNTAINS/SOUTHWEST MOUNTAINS

CITY           SKY/WX    TMP DP  RH WIND       PRES   REMARKS
GALLUP         FAIR      69  19  15 SW24G35   30.04F
GRANTS         FAIR      74  19  13 S10G25    30.05F
SILVER CITY      N/A     75  18  11 SW9G25    30.09S

$$
NMZ407-409-411-412-242000-
SOUTHERN DESERTS

CITY           SKY/WX    TMP DP  RH WIND       PRES   REMARKS
LORDSBURG      FAIR      79  21  11 W7        30.01F
DEMING         FAIR      83  22  10 W10G22    30.01F
ALAMOGORDO     FAIR      82  19   9 SW14      30.00F
T OR C         FAIR      81  20  10 S25G35    29.98F

$$
NMZ519>523-242000-
CENTRAL VALLEYS/CENTRAL HIGHLANDS

CITY           SKY/WX    TMP DP  RH WIND       PRES   REMARKS
ALBUQUERQUE    FAIR      75  22  13 SW6G20    30.00F
DOUBLE EAGLE   MOSUNNY   75  27  16 S8G20     30.03F
CLINES CORNERS FAIR      72  20  14 SW15G29   30.06F
BELEN          FAIR      78  20  11 E9        29.97F
SOCORRO        NOT AVBL

$$
NMZ524>526-539-540-242000-
SOUTHCENTRAL MOUNTAINS

CITY           SKY/WX    TMP DP  RH WIND       PRES   REMARKS
RUIDOSO        NOT AVBL

$$
NMZ527>531-242000-
NORTHEAST HIGHLANDS/NORTHEAST PLAINS

CITY           SKY/WX    TMP DP  RH WIND       PRES   REMARKS
LAS VEGAS      FAIR      73  18  12 SW21G29   30.05S
RATON          FAIR      76  23  14 SW17G25   29.97F
CLAYTON        FAIR      84  28  13 S22G28    29.92F

$$
NMZ532>537-242000-
EASTCENTRAL PLAINS

CITY           SKY/WX    TMP DP  RH WIND       PRES   REMARKS
TUCUMCARI      FAIR      90  20   7 SW23G29   29.88F
CANNON AFB     NOT AVBL
CLOVIS AIRPORT FAIR      88  36  15 SW17G23   29.93S

$$
NMZ028-029-538-242000-
SOUTHEAST PLAINS

CITY           SKY/WX    TMP DP  RH WIND       PRES   REMARKS
ROSWELL        FAIR      90  21   8 S10       29.90F
ARTESIA        FAIR      90  21   8 SW21G32   29.91S
CARLSBAD       FAIR      87  19   8 W17       29.92F
HOBBS          SUNNY     90  14   6 SW20G31   29.95S


$$




USA.gov is the U.S. government's official web portal to all federal, state and local government web resources and services.